Regional Weather Roundup
Issued by NWS

Home | Current Version | Previous Version | Graphics & Text | Print | Product List | Glossary On
Versions: 1 2 3 4 5 6 7 8 9 10 11 12 13 14 15 16 17 18 19 20 21 22 23 24 25 26 27 28 29 30 31 32 33 34 35 36 37 38 39 40 41 42 43 44 45 46 47 48 49 50
000
ASUS43 KBIS 300520
RWRND

NORTH DAKOTA REGIONAL WEATHER ROUNDUP
NATIONAL WEATHER SERVICE BISMARCK ND
1200 AM CDT THU OCT 30 2014

NOTE: "FAIR" INDICATES FEW OR NO CLOUDS BELOW 12,000 FEET WITH NO
SIGNIFICANT WEATHER AND/OR OBSTRUCTIONS TO VISIBILITY.


NDZ001>003-009>011-017-300600-
NORTHWEST NORTH DAKOTA

CITY           SKY/WX    TMP DP  RH WIND       PRES   REMARKS
WILLISTON      CLEAR     39  33  79 N13       30.05R
MINOT          CLEAR     35  30  82 NW10      29.98R
MINOT AFB      CLEAR     34  32  94 NW12      29.98R
$$

NDZ018>021-031>035-040>046-300600-
SOUTHWEST NORTH DAKOTA

CITY           SKY/WX    TMP DP  RH WIND       PRES   REMARKS
BISMARCK       CLEAR     41  41 100 NW5       29.97R FOG
DICKINSON      CLEAR     39  34  82 NW12      29.99R
GARRISON         N/A     36  34  92 NW8       29.96R
HETTINGER ARPT CLEAR     38  34  85 NW7       30.02R
$$

NDZ004>008-012>016-024-026-027-054-300600-
NORTHEAST NORTH DAKOTA

CITY           SKY/WX    TMP DP  RH WIND       PRES   REMARKS
GRAND FORKS    CLOUDY    38  32  79 SE10      29.98F
GRND FRKS AFB  CLOUDY    38  33  83 S8        29.98S
DEVILS LAKE    CLEAR     36  27  69 NE9       29.93R
$$

NDZ022-023-025-028>030-036>039-047>053-300600-
SOUTHEAST NORTH DAKOTA

CITY           SKY/WX    TMP DP  RH WIND       PRES   REMARKS
FARGO          CLOUDY    40  33  76 SE13      29.99F
JAMESTOWN      CLOUDY    42  39  89 S6        29.93F
$$




USA.gov is the U.S. government's official web portal to all federal, state and local government web resources and services.